Terminal Aerodrome Forecast
Issued by NWS

Home | Current Version | Previous Version | Text Only | Print | Product List | Glossary On
Versions: 1 2 3 4 5 6 7 8 9 10 11 12 13 14 15 16 17 18 19 20 21 22 23 24 25 26 27 28 29 30 31 32 33 34 35 36 37 38 39 40 41 42 43 44
000
FTAK31 PANC 251140
TAFADL
TAF
PADL 251140Z 2512/2612 07010KT 2SM -RASN BR OVC003
     FM251600 26015G30KT 5SM -SHSN BR BKN005
     FM252100 22020G30KT P6SM -SHSN SCT005 BKN015
     FM260600 20012G18KT P6SM SCT010 OVC020
      AMD LTD TO CLD VIS AND WIND TIL 251600=

USA.gov is the U.S. government's official web portal to all federal, state and local government web resources and services.